TIANMU-1 05

Last updated on Sun Nov 09 2025 00:02:23 GMT+0000 (Coordinated Universal Time)

1 55975U 23039C 25312.49132385 .00018655 00000+0 47743-3 0 9998 2 55975 97.5093 113.9207 0003289 181.9793 178.1440 15.39460317146778
UTC large
Height (km)
Speed (km/s)
/
Latitude / Longitude
Inclination (degrees)
Orbital Period (minutes)
Azimuth
Elevation
Range (km)
Doppler Factor

Next 0 passes for location: London (51.5072 / 0.1276)

Sorry there are no passes over London.